CAPE
0 0 0 0 0 0 3 6 4 0 0 14 6 1 2 1 0 0 0 3 0 0 0 0 0 2 2 6 11 13 1 27 38 230 266 294 301 208
0 0 0 0 0 1 3 3 7 3 5 7 3 1 3 1 0 0 0 0 1 0 0 0 0 1 2 3 7 12 3 57 151 281 289 220 203 117
0 0 0 0 0 1 3 4 7 3 6 2 1 1 2 2 1 0 0 0 2 2 2 2 0 1 1 3 4 6 11 3 124 163 190 112 18 3
0 0 0 0 0 0 1 4 7 4 15 19 1 2 2 2 0 0 0 0 0 2 4 6 3 1 3 3 2 2 5 4 4 5 16 8 2 1
0 0 0 0 0 0 1 4 6 3 10 6 1 1 2 2 0 0 0 0 0 0 0 2 2 0 1 2 2 1 1 2 1 1 6 11 7 6
0 0 0 0 0 1 2 3 5 5 4 7 4 1 1 1 0 0 0 0 0 0 0 0 0 0 0 0 0 0 0 0 0 0 0 0 0 4
0 0 0 0 0 0 0 6 3 1 1 1 6 1 1 1 1 0 0 0 0 0 0 0 0 0 0 0 0 0 0 0 0 0 0 0 0 0
0 0 0 0 0 0 0 0 0 2 5 4 1 0 0 0 0 0 0 0 0 0 0 0 0 0 0 0 0 0 0 0 0 0 0 0 0 0
0 0 0 0 0 0 0 0 0 0 0 1 0 0 0 0 0 0 0 0 0 0 0 0 0 0 0 0 0 0 0 0 0 0 0 0 0 0
1 2 1 0 0 0 0 0 0 0 0 0 0 0 0 0 0 0 0 0 0 0 0 0 0 0 0 0 0 0 0 0 0 0 0 0 0 0
0 0 0 0 0 0 0 0 0 0 0 0 0 0 0 0 0 0 0 0 0 0 0 0 0 0 0 0 0 0 0 0 3 2 1 1 0 0
0 0 0 0 0 0 0 0 0 0 0 0 0 0 0 0 0 0 0 9 0 0 0 0 0 0 0 0 0 0 0 1 0 2 0 0 0 0
0 0 0 0 0 0 0 0 0 0 0 0 0 0 0 0 0 0 0 4 2 1 0 0 1 0 1 0 0 0 0 0 0 0 0 0 1 0
0 0 0 0 0 0 0 0 0 0 0 0 0 0 0 0 0 0 0 0 0 0 0 1 4 0 2 0 0 0 0 0 0 1 0 0 0 1
0 0 0 0 0 0 0 0 0 0 0 0 0 0 0 1 2 1 1 2 5 2 0 0 2 1 2 1 0 0 1 0 0 1 1 0 0 0
0 0 0 0 0 0 0 1 0 0 0 0 0 0 0 2 1 1 1 1 1 2 2 0 1 0 0 0 0 0 0 0 3 3 1 1 0 0
0 0 0 0 0 0 0 0 0 0 0 0 0 0 0 0 0 2 2 2 2 0 1 1 0 0 0 1 0 0 0 0 1 1 0 1 1 0
0 0 0 0 0 0 0 0 0 0 0 0 0 0 0 0 1 2 2 3 2 1 0 2 3 2 1 0 0 0 0 0 2 2 1 1 1 0
0 0 0 0 0 0 0 0 0 0 0 4 3 5 3 3 3 2 2 2 2 1 3 3 2 1 0 0 0 0 2 0 1 1 0 0 0 0
0 1 1 0 0 0 0 0 0 0 0 1 4 5 4 4 4 5 4 2 0 1 3 8 4 4 0 0 0 0 0 3 0 0 1 0 0 0
0 0 1 2 0 0 0 1 0 4 3 4 4 3 4 5 4 4 3 1 1 1 2 2 2 0 2 0 0 0 0 0 0 1 0 0 0 0
0 0 0 0 0 2 3 5 6 5 6 6 4 6 5 5 3 1 0 2 2 3 2 1 1 3 9 6 0 0 0 0 0 1 0 0 0 0
0 0 0 0 0 1 1 2 4 3 3 6 7 7 5 6 1 2 1 0 0 0 1 3 7 11 7 6 1 0 0 0 0 0 3 1 0 0
CIN
-0 -0 -0 -0 -0 -0 -0 -0 -0 -0 -0 -0 -0 -0 -0 -0 -0 -0 -0 -0 -0 -0 -0 -0 -0 -0 -0 -0 -0 -0 -0 -74 -57 -8 -3 -2 -0 -0
-0 -0 -0 -0 -0 -0 -0 -0 -0 -0 -0 -0 -1 -0 -0 -0 -0 -0 -0 -0 -0 -0 -0 -0 -0 -0 -0 -0 -0 -0 -0 -56 -11 -4 -0 -1 -6 -23
-0 -0 -0 -0 -0 -0 -0 -0 -0 -1 -0 -0 -0 -0 -0 -0 -0 -0 -0 -0 -1 -0 -0 -0 -0 -0 -0 -0 -0 -0 -0 -4 -7 -3 -0 -20 -0 -0
-0 -0 -0 -0 -0 -0 -0 -0 -0 -0 -0 -0 -0 -0 -0 -0 -0 -0 -0 -0 -0 -0 -0 -0 -0 -0 -0 -0 -0 -0 -0 -0 -0 -0 -0 -0 -0 -0
-0 -0 -0 -0 -0 -0 -0 -0 -0 -0 -0 -1 -0 -0 -0 -0 -0 -0 -0 -0 -0 -0 -0 -0 -0 -0 -0 -0 -0 -0 -0 -0 -0 -0 -0 -0 -0 -0
-0 -0 -0 -0 -0 -0 -0 -0 -0 -0 -0 -0 -1 -0 -0 -0 -0 -0 -0 -0 -0 -0 -0 -0 -0 -0 -0 -0 -0 -0 -0 -0 -0 -0 -0 -0 -1 -1
-0 -0 -0 -0 -0 -0 -0 -0 -0 -0 -2 -2 -0 -0 -0 -0 -0 -0 -0 -0 -0 -0 -0 -0 -0 -0 -0 -0 -0 -0 -0 -0 -0 -0 -0 -0 -0 -0
-0 -0 -0 -0 -0 -0 -0 -0 -0 -0 -0 -0 -0 -0 -0 -0 -0 -0 -0 -0 -0 -0 -0 -0 -0 -0 -0 -0 -0 -0 -0 -0 -0 -0 -0 -0 -0 -0
-0 -0 -0 -0 -0 -0 -0 -0 -0 -0 -0 -0 -0 -0 -0 -0 -0 -0 -0 -0 -0 -0 -0 -0 -0 -0 -0 -0 -0 -0 -0 -0 -0 -0 -0 -0 -0 -0
-0 -0 -0 -0 -0 -0 -0 -0 -0 -0 -0 -0 -0 -0 -0 -0 -0 -0 -0 -0 -0 -0 -0 -0 -0 -0 -0 -0 -0 -0 -0 -0 -0 -0 -0 -0 -0 -0
-0 -0 -0 -0 -0 -0 -0 -0 -0 -0 -0 -0 -0 -0 -0 -0 -0 -0 -0 -0 -0 -0 -0 -0 -0 -0 -0 -0 -0 -0 -0 -0 -0 -0 -0 -0 -0 -0
-0 -0 -0 -0 -0 -0 -0 -0 -0 -0 -0 -0 -0 -0 -0 -0 -0 -0 -0 -0 -0 -0 -0 -0 -0 -0 -0 -0 -0 -0 -0 -0 -0 -0 -0 -0 -0 -0
-0 -0 -0 -0 -0 -0 -0 -0 -0 -0 -0 -0 -0 -0 -0 -0 -0 -0 -0 -0 -0 -0 -0 -0 -0 -0 -0 -0 -0 -0 -0 -0 -0 -0 -0 -0 -0 -0
-0 -0 -0 -0 -0 -0 -0 -0 -0 -0 -0 -0 -0 -0 -0 -0 -0 -0 -0 -0 -0 -0 -0 -0 -0 -0 -0 -0 -0 -0 -0 -0 -0 -0 -0 -0 -0 -0
-0 -0 -0 -0 -0 -0 -0 -0 -0 -0 -0 -0 -0 -0 -0 -0 -0 -0 -0 -0 -0 -0 -0 -0 -0 -0 -0 -0 -0 -0 -0 -0 -0 -0 -0 -0 -0 -0
-0 -0 -0 -0 -0 -0 -0 -0 -0 -0 -0 -0 -0 -0 -0 -0 -0 -0 -0 -0 -0 -0 -0 -0 -0 -0 -0 -0 -0 -0 -0 -0 -0 -0 -0 -0 -0 -0
-0 -0 -0 -0 -0 -0 -0 -0 -0 -0 -0 -0 -0 -0 -0 -0 -0 -0 -0 -0 -0 -0 -0 -0 -0 -0 -0 -0 -0 -0 -0 -0 -0 -0 -0 -0 -0 -0
-0 -0 -0 -0 -0 -0 -0 -0 -0 -0 -0 -0 -0 -0 -0 -0 -0 -0 -0 -0 -0 -0 -0 -0 -0 -0 -0 -0 -0 -0 -0 -0 -0 -0 -0 -0 -0 -0
-0 -0 -0 -0 -0 -0 -0 -0 -0 -0 -0 -0 -0 -0 -0 -0 -0 -0 -0 -0 -0 -0 -0 -0 -0 -0 -0 -0 -0 -0 -0 -0 -0 -0 -0 -0 -0 -0
-0 -0 -0 -0 -0 -0 -0 -0 -0 -0 -0 -0 -0 -0 -0 -0 -0 -0 -0 -0 -0 -0 -0 -0 -0 -0 -0 -0 -0 -0 -0 -0 -0 -0 -0 -0 -0 -0
-0 -0 -0 -0 -0 -0 -0 -0 -0 -0 -0 -0 -0 -0 -0 -0 -0 -0 -0 -0 -0 -0 -0 -0 -0 -0 -0 -0 -0 -0 -0 -0 -0 -0 -0 -0 -0 -0
-0 -0 -0 -0 -0 -0 -0 -0 -0 -0 -0 -0 -0 -0 -0 -0 -0 -0 -0 -0 -0 -0 -0 -0 -0 -0 -0 -0 -0 -0 -0 -0 -0 -0 -0 -0 -0 -0
-0 -0 -0 -0 -0 -0 -0 -0 -0 -0 -0 -0 -0 -0 -0 -0 -0 -0 -0 -0 -0 -0 -0 -0 -0 -0 -0 -0 -0 -0 -0 -0 -0 -0 -0 -0 -0 -0
Wind_Speed
5 5 4 3 4 4 4 4 5 4 5 5 4 3 3 3 2 1 2 3 3 4 4 5 7 9 11 14 18 22 17 6 9 12 15 19 19 19
3 5 4 4 4 4 5 5 5 7 5 1 2 2 3 2 3 1 2 3 1 1 2 4 5 9 12 15 18 23 23 5 9 14 20 19 19 21
5 5 5 4 4 4 3 4 5 5 6 1 1 0 3 3 3 2 2 2 2 3 2 3 6 9 12 14 16 21 22 21 13 19 20 22 23 21
5 5 5 3 5 4 4 5 5 4 3 6 3 2 2 2 3 3 2 3 3 4 2 4 7 9 11 13 15 17 20 21 22 19 20 20 19 18
4 4 4 4 4 3 3 4 4 3 3 3 2 1 1 2 3 3 2 2 3 6 8 8 8 8 10 11 13 13 16 18 20 20 16 15 15 13
4 2 3 3 3 2 3 5 5 5 4 5 2 2 1 2 2 2 2 1 1 1 5 5 7 9 8 9 11 12 12 13 16 16 14 14 11 11
3 4 3 1 2 2 3 5 5 4 4 4 3 2 3 2 4 3 2 2 1 2 3 2 1 1 3 5 5 8 9 10 10 10 9 10 10 10
3 3 3 3 3 2 2 2 4 5 5 3 2 3 3 3 3 3 3 3 3 4 5 4 2 1 1 2 4 4 4 5 6 7 7 7 8 8
4 4 4 2 3 3 3 3 3 3 4 3 3 4 2 5 5 4 3 2 2 3 5 4 3 3 2 1 3 2 1 2 3 4 5 5 7 9
5 5 5 5 3 2 2 2 0 1 4 3 3 3 2 2 5 4 4 4 3 3 2 3 3 2 3 3 2 1 3 3 4 5 5 7 7 7
5 4 4 4 4 4 3 3 2 0 3 5 1 1 2 3 5 5 5 5 3 3 4 2 3 3 3 3 2 4 5 5 6 6 6 6 7 6
4 4 5 4 4 6 5 3 3 2 2 2 2 4 4 6 4 3 4 5 2 3 4 4 4 3 3 2 2 1 2 5 3 5 5 5 6 4
4 4 3 6 6 6 6 4 2 2 3 2 2 2 3 3 2 1 1 2 2 1 4 3 3 3 0 3 2 3 3 3 3 3 2 4 7 4
4 3 3 5 6 5 5 3 4 3 2 3 2 2 2 2 2 2 3 3 3 0 6 2 2 3 2 3 3 4 4 3 3 3 3 4 5 7
3 4 4 5 5 6 7 7 6 4 3 3 3 2 2 2 4 3 4 5 5 4 3 1 2 2 1 1 2 3 4 5 5 4 4 4 4 5
7 5 5 4 4 3 4 6 5 4 4 4 3 3 3 3 4 3 2 3 2 3 2 1 2 3 2 3 2 3 4 3 5 5 5 5 5 6
6 3 4 4 4 4 4 5 5 4 5 4 3 4 4 4 4 4 3 3 3 3 4 3 3 2 2 2 4 5 5 5 5 4 5 5 6 7
4 4 5 5 6 5 5 5 5 6 5 4 4 4 4 5 5 4 3 4 5 5 4 4 4 3 2 7 13 5 5 5 5 6 6 5 7 7
5 5 4 6 6 5 5 5 6 5 3 4 5 5 4 4 6 5 6 6 6 5 5 5 6 5 5 4 2 17 6 5 5 6 6 7 5 3
5 5 6 6 5 5 5 5 5 4 5 5 5 5 5 5 6 6 6 7 7 6 6 6 7 7 7 4 2 1 17 6 6 6 6 6 6 10
5 5 6 5 5 5 5 5 5 5 5 5 5 6 6 6 7 7 7 11 10 7 8 8 8 14 3 1 4 5 5 18 10 6 5 5 4 5
4 5 4 4 5 5 5 5 5 5 5 6 6 6 6 7 7 8 8 8 8 9 8 5 4 6 8 8 9 8 6 6 13 20 14 9 4 5
3 3 3 4 4 4 4 4 5 5 5 5 5 6 6 7 8 8 8 8 8 8 8 7 6 7 8 9 10 8 9 8 7 7 9 22 23 21
Wind_Direction
172 193 208 206 223 231 237 238 238 269 258 195 223 208 231 183 132 82 50 41 77 55 48 46 11 357 351 358 350 346 340 237 210 185 181 174 177 157
163 189 201 208 218 227 231 237 226 251 259 315 202 191 195 210 120 122 56 344 344 85 49 52 34 20 8 9 1 3 8 194 180 162 154 148 152 144
180 202 209 217 229 237 235 247 246 239 259 162 252 88 194 179 128 87 38 35 58 52 74 79 50 28 22 23 23 14 22 34 133 139 141 133 130 129
181 197 202 206 217 220 249 253 254 258 274 266 181 189 199 165 134 100 55 38 17 36 100 93 79 41 29 21 33 32 31 41 50 85 110 119 119 127
181 197 188 207 205 220 241 257 255 245 264 260 186 146 114 131 108 82 90 54 47 35 36 44 74 57 43 32 35 44 48 46 56 57 76 98 108 119
171 192 205 208 193 204 242 253 254 257 259 271 221 173 141 134 148 147 172 131 156 52 55 61 75 63 42 35 35 34 49 57 62 64 67 71 78 103
176 183 182 90 38 302 261 252 258 259 251 250 224 170 161 171 199 163 136 141 209 238 216 177 186 41 44 55 38 37 45 64 75 80 83 85 86 95
189 191 173 175 176 140 91 326 301 278 254 243 216 198 181 186 165 164 127 160 213 193 224 175 226 162 51 47 43 43 46 62 76 89 91 96 109 115
187 204 199 173 201 157 100 69 48 3 327 259 246 231 208 192 147 160 175 171 169 140 207 192 196 175 155 151 35 52 83 99 121 118 115 126 131 122
193 205 210 200 179 167 204 181 174 26 0 308 276 292 296 165 174 171 162 111 71 144 214 206 177 186 172 161 357 165 163 143 148 130 151 146 130 134
178 179 201 213 185 186 202 209 196 153 36 43 53 265 255 214 192 152 152 162 183 195 189 171 191 165 179 168 108 24 165 162 152 141 132 127 130 135
177 168 200 232 219 219 227 219 235 216 205 193 131 81 108 112 130 247 172 188 152 197 184 186 160 175 179 174 174 125 125 124 129 139 157 165 156 184
200 191 196 216 234 228 232 224 249 187 169 203 148 128 124 107 99 53 148 166 163 234 164 152 166 184 258 137 167 186 193 156 143 121 110 201 185 230
201 197 194 202 224 239 214 198 184 184 212 217 208 191 157 133 112 91 66 72 75 66 164 112 133 193 173 168 169 170 197 198 198 193 205 213 227 215
185 192 185 206 225 232 228 206 203 202 217 218 224 206 195 120 120 115 96 93 75 85 94 98 117 160 215 201 160 174 161 201 198 197 200 214 220 226
196 197 203 213 223 250 225 220 218 222 227 228 218 185 154 163 189 173 166 157 165 149 104 62 119 174 200 232 213 182 203 196 191 204 210 219 230 227
166 175 194 204 215 219 219 224 218 220 223 225 211 202 200 189 198 184 193 185 211 184 184 186 191 215 248 252 226 226 216 210 190 186 199 219 224 229
178 188 206 216 226 226 222 220 217 223 224 214 213 215 214 205 201 192 194 219 221 209 204 181 179 198 240 231 214 218 211 222 200 202 218 236 244 232
211 209 219 224 227 224 225 224 227 224 186 207 213 211 210 210 207 207 209 220 225 225 214 190 195 205 222 244 138 213 218 204 201 211 210 216 241 240
206 214 226 232 232 229 225 225 228 219 215 218 211 211 205 209 210 218 214 217 224 222 221 207 210 204 214 226 236 152 203 208 205 218 213 224 246 267
204 213 224 235 240 233 232 227 225 221 211 207 214 212 210 210 219 220 223 222 224 224 230 225 215 214 209 123 244 231 206 216 223 207 192 211 222 239
199 209 209 214 220 227 230 227 225 228 226 215 219 214 215 215 225 226 224 225 223 224 235 235 184 187 200 215 238 242 227 214 221 228 226 211 181 217
210 211 210 214 213 217 219 221 226 240 234 228 224 219 216 222 226 231 232 229 231 227 227 224 205 204 217 218 226 238 237 222 219 223 228 231 238 247